User: anonymous
Location: NJAA Observatory
(40.6819°N, 74.8979°W)
Time: 18:08:20
(UTC-04:00)
Language:

Cosmos 1328 Rocket - Orbit

View from above orbital plane
View from above orbital plane
View from above satellite
View from above satellite

Ground track
Ground track

The orbit data is extracted from the following two-line orbital elements,

1 12988U 81117B   14112.85006716  .00000766  00000-0  88921-4 0   215
2 12988 082.5255 072.8816 0019398 054.2418 005.5392 14.84011183749019
Epoch (UTC): 22 April 2014 20:24:05
Eccentricity: 0.0019398
inclination: 82.5255°
perigee height: 603 km
apogee height: 630 km
right ascension of ascending node: 72.8816°
argument of perigee: 54.2418°
revolutions per day: 14.84011183
mean anomaly at epoch: 5.5392°
orbit number at epoch: 74901

The dashed part of the orbit path shows where the satellite is in the earth's shadow,  

DLR